Temp
-7 -6 -6 -6 -6 -7 -7 -7 -7 -7 -6 -7 -7 -8 -8 -9 -8 -7 -8 -8 -8 -7 -6 -7 -7 -7 -7 -7 -6 -6 -6 -6 -7 -7 -7 -7 -7 -7 -7 -7 -8 -8 -8 -8 -8 -8 -7 -7 -8
-7 -7 -7 -6 -6 -7 -7 -7 -7 -7 -6 -7 -7 -8 -8 -7 -7 -7 -7 -8 -8 -7 -7 -7 -7 -8 -8 -7 -7 -7 -7 -7 -7 -7 -7 -7 -7 -8 -8 -8 -8 -8 -9 -9 -9 -9 -8 -8 -8
-7 -7 -7 -7 -7 -7 -7 -7 -8 -8 -8 -7 -7 -8 -8 -7 -7 -7 -8 -7 -8 -8 -7 -7 -8 -9 -8 -7 -7 -7 -7 -8 -8 -8 -7 -7 -7 -8 -8 -8 -8 -9 -9 -9 -9 -9 -9 -9 -9
-7 -7 -7 -7 -7 -7 -8 -9 -9 -9 -9 -8 -8 -8 -7 -8 -8 -8 -8 -8 -8 -8 -8 -8 -8 -8 -8 -8 -8 -8 -8 -8 -8 -8 -7 -7 -7 -8 -8 -8 -8 -8 -9 -10 -10 -10 -10 -10 -10
-7 -7 -7 -7 -7 -8 -8 -9 -10 -9 -9 -9 -8 -9 -8 -9 -9 -9 -9 -9 -8 -8 -8 -8 -8 -7 -7 -8 -8 -8 -8 -8 -8 -8 -7 -8 -8 -8 -8 -8 -8 -9 -10 -10 -10 -10 -10 -10 -10
-8 -8 -7 -7 -8 -9 -9 -10 -9 -9 -9 -10 -9 -8 -9 -8 -9 -9 -9 -8 -8 -8 -8 -8 -7 -7 -7 -8 -9 -9 -8 -8 -8 -8 -8 -8 -8 -8 -9 -9 -9 -10 -10 -10 -10 -10 -10 -10 -11
-8 -8 -8 -8 -7 -9 -9 -10 -9 -9 -10 -10 -10 -10 -10 -10 -10 -10 -9 -9 -8 -7 -8 -7 -7 -8 -7 -8 -8 -9 -8 -9 -9 -9 -9 -9 -9 -9 -9 -10 -10 -10 -10 -10 -10 -10 -11 -11 -11
-9 -8 -8 -7 -8 -8 -10 -10 -10 -10 -10 -10 -10 -11 -10 -10 -10 -9 -9 -8 -8 -7 -8 -10 -9 -9 -8 -8 -9 -9 -10 -9 -10 -10 -10 -9 -9 -10 -10 -10 -11 -11 -11 -11 -11 -11 -11 -11 -11
-10 -8 -8 -8 -8 -8 -11 -8 -10 -10 -10 -10 -10 -10 -10 -10 -10 -10 -9 -9 -8 -9 -10 -8 -10 -10 -10 -9 -9 -10 -10 -10 -10 -10 -10 -10 -10 -11 -11 -11 -12 -12 -12 -11 -11 -11 -11 -12 -11
-10 -9 -9 -9 -9 -10 -10 -9 -10 -10 -9 -9 -9 -11 -10 -10 -10 -11 -11 -10 -10 -10 -9 -10 -11 -10 -10 -10 -10 -10 -10 -10 -10 -10 -11 -11 -11 -11 -12 -12 -12 -12 -12 -12 -12 -12 -12 -12 -12
-10 -8 -9 -9 -9 -10 -11 -10 -9 -10 -10 -10 -10 -9 -10 -10 -10 -10 -10 -10 -10 -9 -9 -10 -10 -10 -11 -10 -10 -10 -10 -10 -10 -10 -11 -11 -12 -12 -13 -13 -13 -12 -12 -12 -12 -12 -12 -12 -12
-10 -9 -9 -11 -10 -10 -11 -11 -11 -11 -9 -10 -10 -10 -10 -10 -10 -10 -10 -10 -10 -10 -9 -10 -9 -10 -11 -11 -10 -11 -11 -11 -10 -11 -12 -12 -13 -13 -13 -13 -13 -13 -12 -12 -12 -12 -12 -12 -12
-11 -10 -11 -11 -11 -11 -11 -10 -10 -10 -11 -11 -10 -10 -10 -10 -11 -11 -10 -10 -10 -10 -10 -10 -9 -10 -10 -10 -10 -11 -11 -11 -11 -11 -12 -13 -13 -13 -14 -14 -14 -13 -13 -13 -12 -12 -13 -13 -12
-11 -11 -11 -11 -10 -11 -11 -10 -10 -9 -10 -10 -11 -10 -10 -10 -11 -11 -10 -10 -10 -9 -10 -10 -10 -11 -10 -10 -11 -11 -11 -11 -11 -11 -13 -13 -14 -14 -14 -14 -14 -14 -14 -13 -12 -12 -12 -12 -12
-11 -11 -10 -10 -10 -10 -11 -9 -8 -9 -10 -9 -10 -10 -10 -10 -10 -10 -10 -9 -9 -9 -10 -11 -11 -10 -10 -11 -11 -11 -11 -11 -11 -12 -13 -13 -14 -14 -14 -14 -14 -14 -13 -13 -12 -12 -12 -12 -12
-11 -11 -9 -8 -9 -10 -12 -6 -8 -10 -10 -10 -10 -11 -10 -9 -10 -9 -9 -9 -10 -10 -11 -11 -11 -10 -11 -11 -11 -11 -11 -11 -11 -12 -13 -13 -14 -14 -14 -14 -14 -14 -14 -13 -13 -13 -12 -12 -12
-11 -9 -9 -8 -10 -11 -12 -6 -9 -10 -11 -11 -11 -10 -9 -9 -9 -9 -9 -10 -10 -11 -12 -11 -11 -11 -11 -11 -12 -11 -11 -12 -11 -12 -13 -13 -14 -13 -14 -13 -14 -14 -13 -13 -13 -13 -13 -13 -13
-10 -9 -9 -9 -10 -12 -12 -7 -10 -10 -11 -11 -10 -10 -9 -9 -9 -9 -9 -9 -10 -11 -12 -12 -12 -12 -12 -12 -12 -12 -12 -12 -11 -11 -12 -13 -13 -13 -13 -14 -14 -13 -13 -14 -13 -13 -13 -13 -13
-11 -11 -10 -10 -11 -12 -10 -9 -9 -10 -10 -10 -10 -9 -9 -9 -9 -9 -10 -10 -10 -11 -11 -11 -12 -12 -12 -12 -12 -12 -12 -12 -11 -11 -12 -12 -13 -13 -13 -13 -13 -13 -14 -13 -13 -13 -13 -14 -14
-11 -11 -10 -11 -11 -11 -11 -10 -10 -10 -9 -10 -9 -9 -9 -8 -9 -10 -10 -10 -11 -12 -11 -10 -11 -11 -11 -12 -12 -13 -12 -12 -11 -11 -11 -12 -13 -13 -13 -13 -13 -13 -13 -13 -13 -13 -14 -14 -14
-11 -11 -11 -11 -11 -11 -12 -10 -11 -9 -9 -10 -9 -9 -8 -8 -10 -9 -10 -10 -11 -11 -11 -11 -11 -11 -11 -12 -13 -12 -12 -12 -13 -13 -12 -12 -13 -13 -13 -13 -13 -13 -13 -13 -13 -14 -14 -14 -14
-11 -11 -11 -11 -12 -11 -13 -10 -10 -9 -9 -9 -9 -9 -9 -10 -9 -9 -10 -10 -11 -11 -11 -11 -12 -11 -11 -12 -12 -12 -12 -13 -13 -13 -13 -13 -13 -12 -13 -13 -13 -13 -13 -13 -13 -14 -14 -14 -14
-10 -11 -11 -12 -12 -12 -11 -11 -6 -9 -8 -9 -9 -9 -10 -9 -9 -9 -10 -10 -11 -11 -11 -11 -12 -11 -12 -12 -12 -12 -12 -13 -13 -12 -12 -12 -12 -12 -13 -13 -12 -13 -13 -13 -13 -13 -14 -14 -14
-11 -12 -12 -12 -12 -11 -10 -10 -7 -8 -9 -9 -9 -9 -9 -9 -9 -9 -10 -10 -11 -11 -11 -11 -12 -11 -12 -12 -11 -12 -12 -12 -12 -12 -12 -12 -12 -12 -12 -12 -12 -13 -12 -13 -13 -13 -14 -14 -14
-12 -12 -12 -12 -12 -9 -10 -10 -7 -9 -10 -10 -9 -9 -9 -8 -9 -10 -10 -10 -10 -11 -11 -11 -12 -12 -12 -11 -11 -12 -11 -11 -12 -12 -12 -12 -12 -12 -12 -12 -12 -12 -12 -13 -13 -13 -13 -13 -14
-13 -14 -12 -10 -11 -9 -11 -8 -7 -9 -11 -10 -9 -9 -8 -9 -10 -9 -10 -10 -10 -11 -11 -11 -11 -11 -11 -11 -11 -11 -11 -12 -12 -12 -12 -12 -12 -12 -12 -12 -12 -12 -12 -13 -13 -13 -13 -13 -14
-14 -13 -12 -12 -12 -10 -10 -9 -8 -9 -10 -11 -10 -9 -9 -9 -9 -10 -10 -11 -11 -11 -11 -11 -11 -11 -11 -11 -11 -11 -12 -12 -11 -11 -12 -12 -12 -12 -12 -12 -12 -12 -12 -13 -13 -13 -13 -13 -14
-15 -15 -16 -13 -13 -10 -9 -9 -8 -10 -10 -11 -10 -9 -10 -9 -10 -10 -10 -11 -11 -11 -11 -11 -11 -11 -11 -11 -11 -11 -11 -11 -11 -12 -12 -12 -12 -12 -12 -12 -12 -12 -12 -13 -13 -12 -13 -13 -13
-16 -17 -16 -16 -14 -11 -9 -9 -10 -11 -11 -11 -10 -10 -10 -9 -10 -10 -10 -11 -11 -11 -11 -10 -10 -10 -11 -11 -11 -11 -11 -11 -12 -12 -12 -12 -12 -12 -12 -12 -12 -12 -12 -13 -13 -12 -13 -13 -13
-19 -18 -17 -15 -12 -11 -9 -8 -11 -12 -11 -11 -10 -10 -10 -10 -11 -10 -11 -11 -11 -11 -10 -10 -10 -11 -11 -11 -11 -11 -11 -12 -12 -12 -12 -11 -12 -12 -12 -12 -12 -12 -13 -13 -13 -12 -12 -12 -13
Height
5889 5890 5894 5897 5902 5900 5899 5898 5899 5897 5897 5898 5896 5897 5898 5898 5899 5902 5899 5895 5893 5893 5889 5888 5887 5885 5883 5880 5878 5874 5870 5867 5864 5861 5859 5858 5856 5854 5852 5849 5846 5843 5840 5838 5837 5836 5834 5832 5833
5886 5888 5891 5894 5897 5897 5897 5894 5896 5896 5896 5894 5894 5890 5892 5895 5895 5896 5894 5891 5890 5887 5886 5887 5883 5880 5877 5876 5874 5871 5867 5864 5861 5858 5856 5855 5852 5850 5847 5845 5842 5839 5835 5833 5830 5829 5828 5827 5826
5882 5885 5886 5890 5892 5894 5894 5892 5894 5894 5893 5894 5893 5890 5883 5889 5892 5891 5887 5885 5884 5884 5883 5883 5881 5880 5878 5873 5870 5867 5864 5860 5857 5855 5853 5850 5848 5845 5842 5841 5839 5834 5831 5828 5824 5822 5821 5820 5820
5879 5880 5883 5886 5889 5890 5891 5890 5889 5889 5889 5887 5884 5886 5881 5884 5884 5883 5881 5880 5881 5881 5879 5880 5879 5878 5876 5869 5865 5862 5860 5857 5854 5851 5848 5845 5842 5839 5836 5833 5831 5829 5825 5822 5819 5817 5815 5812 5813
5872 5874 5877 5881 5884 5887 5887 5882 5881 5884 5885 5883 5882 5881 5882 5878 5878 5877 5878 5878 5878 5877 5877 5876 5876 5874 5870 5865 5862 5859 5856 5853 5850 5847 5843 5840 5837 5834 5830 5826 5824 5822 5820 5817 5814 5812 5809 5808 5807
5867 5868 5871 5876 5877 5879 5883 5874 5876 5878 5879 5877 5875 5876 5877 5874 5872 5873 5871 5872 5877 5875 5875 5873 5871 5868 5866 5861 5857 5854 5852 5849 5846 5843 5839 5836 5831 5828 5824 5820 5818 5816 5813 5810 5808 5806 5804 5803 5802
5860 5861 5865 5868 5872 5876 5877 5870 5871 5871 5873 5872 5870 5870 5870 5869 5866 5867 5866 5862 5870 5869 5869 5865 5865 5864 5865 5859 5856 5852 5849 5847 5843 5838 5834 5831 5827 5824 5820 5816 5812 5809 5807 5805 5803 5801 5799 5799 5797
5852 5852 5855 5860 5865 5872 5861 5864 5866 5869 5869 5869 5871 5869 5867 5864 5864 5860 5858 5858 5861 5861 5859 5856 5860 5856 5858 5859 5854 5849 5845 5841 5838 5834 5830 5826 5823 5819 5815 5812 5808 5804 5802 5800 5797 5796 5795 5793 5791
5843 5838 5847 5854 5860 5866 5853 5854 5862 5863 5859 5861 5864 5864 5861 5861 5860 5856 5854 5850 5853 5849 5850 5850 5847 5850 5848 5851 5848 5842 5838 5835 5833 5829 5826 5822 5818 5814 5810 5807 5803 5800 5797 5795 5792 5791 5789 5786 5785
5830 5830 5837 5851 5852 5854 5853 5847 5857 5857 5856 5858 5857 5856 5855 5859 5856 5853 5851 5851 5848 5849 5847 5844 5842 5845 5842 5842 5840 5837 5833 5830 5828 5824 5821 5817 5814 5809 5806 5802 5799 5795 5792 5790 5788 5787 5783 5781 5778
5823 5822 5832 5840 5842 5844 5845 5848 5844 5849 5847 5853 5852 5851 5854 5853 5857 5853 5850 5851 5851 5850 5846 5842 5840 5838 5837 5835 5834 5832 5829 5825 5822 5820 5815 5812 5809 5805 5801 5798 5794 5790 5786 5784 5783 5781 5779 5775 5772
5811 5817 5821 5826 5832 5832 5835 5840 5837 5833 5842 5844 5845 5845 5849 5850 5850 5848 5845 5842 5843 5843 5839 5835 5834 5833 5831 5828 5828 5825 5823 5819 5816 5814 5810 5807 5803 5800 5796 5793 5790 5786 5781 5778 5777 5775 5773 5769 5765
5801 5811 5808 5813 5817 5822 5825 5824 5828 5830 5834 5836 5837 5838 5840 5840 5840 5839 5838 5836 5834 5831 5828 5825 5825 5826 5823 5820 5820 5818 5816 5813 5810 5807 5804 5801 5798 5795 5791 5787 5784 5780 5776 5773 5770 5769 5766 5763 5759
5795 5793 5798 5799 5804 5810 5811 5815 5816 5820 5828 5831 5831 5831 5831 5830 5830 5829 5830 5828 5825 5822 5819 5815 5818 5816 5815 5814 5812 5810 5808 5806 5803 5801 5798 5795 5793 5790 5787 5782 5778 5774 5769 5765 5763 5761 5759 5756 5753
5779 5779 5783 5790 5795 5797 5802 5801 5804 5816 5821 5819 5819 5821 5821 5822 5822 5822 5822 5818 5815 5813 5810 5807 5811 5809 5808 5807 5806 5804 5802 5800 5797 5795 5792 5790 5788 5785 5781 5776 5771 5767 5762 5758 5754 5750 5749 5747 5746
5764 5765 5771 5784 5787 5788 5791 5787 5806 5809 5807 5809 5810 5810 5811 5813 5814 5814 5811 5809 5807 5804 5803 5801 5801 5802 5800 5799 5799 5796 5795 5793 5791 5789 5786 5784 5783 5779 5775 5771 5766 5760 5754 5750 5745 5741 5737 5736 5735
5749 5756 5762 5776 5777 5775 5777 5778 5792 5796 5797 5796 5798 5800 5802 5804 5804 5803 5802 5800 5799 5796 5794 5792 5792 5792 5793 5792 5791 5789 5788 5787 5785 5782 5780 5778 5776 5773 5770 5764 5757 5752 5747 5742 5737 5733 5729 5726 5725
5745 5753 5756 5759 5765 5764 5768 5768 5780 5784 5785 5785 5787 5792 5792 5794 5794 5795 5793 5792 5791 5788 5787 5786 5784 5784 5784 5784 5782 5781 5780 5779 5777 5775 5773 5771 5769 5766 5761 5754 5749 5745 5740 5734 5728 5725 5720 5717 5715
5731 5731 5739 5747 5749 5754 5758 5759 5765 5771 5773 5775 5777 5781 5784 5785 5788 5786 5785 5783 5780 5779 5779 5777 5776 5775 5775 5776 5773 5773 5773 5771 5770 5768 5764 5763 5759 5754 5749 5745 5742 5738 5734 5729 5721 5717 5713 5710 5707
5718 5723 5734 5737 5740 5746 5750 5749 5752 5757 5761 5764 5772 5774 5776 5775 5776 5777 5775 5773 5772 5773 5770 5769 5767 5765 5767 5768 5766 5766 5765 5763 5762 5759 5755 5754 5751 5748 5744 5739 5736 5732 5727 5721 5715 5712 5707 5703 5701
5707 5713 5724 5726 5731 5736 5733 5739 5737 5752 5754 5759 5759 5765 5765 5767 5769 5768 5766 5765 5764 5762 5761 5760 5759 5758 5758 5759 5761 5760 5758 5757 5755 5753 5751 5747 5745 5741 5738 5735 5730 5725 5719 5715 5712 5708 5703 5699 5696
5691 5705 5711 5713 5720 5722 5729 5723 5734 5744 5748 5750 5754 5754 5757 5759 5761 5759 5757 5757 5756 5755 5754 5753 5753 5752 5752 5754 5756 5755 5754 5751 5750 5748 5744 5742 5739 5736 5732 5728 5725 5721 5716 5712 5708 5703 5698 5693 5690
5688 5689 5697 5703 5708 5711 5719 5723 5732 5735 5739 5745 5747 5749 5750 5753 5753 5751 5751 5750 5749 5747 5746 5746 5747 5748 5748 5750 5750 5748 5747 5745 5744 5741 5738 5736 5733 5731 5728 5724 5720 5716 5712 5708 5704 5699 5694 5689 5685
5670 5676 5684 5691 5697 5700 5717 5719 5722 5730 5736 5738 5740 5742 5745 5745 5744 5746 5745 5742 5741 5740 5740 5741 5742 5743 5745 5745 5743 5742 5741 5739 5737 5735 5733 5731 5729 5726 5722 5719 5715 5712 5709 5705 5702 5698 5693 5688 5684
5655 5661 5670 5680 5684 5700 5709 5709 5719 5726 5729 5728 5733 5736 5738 5737 5739 5739 5737 5736 5735 5734 5736 5737 5739 5740 5740 5738 5737 5735 5735 5733 5732 5730 5728 5725 5723 5720 5717 5715 5712 5709 5706 5703 5700 5696 5692 5688 5685
5642 5647 5659 5670 5678 5692 5697 5700 5709 5722 5717 5724 5727 5731 5732 5733 5732 5732 5731 5731 5730 5731 5733 5734 5736 5736 5734 5733 5731 5729 5729 5728 5726 5725 5723 5720 5717 5715 5713 5711 5709 5707 5705 5702 5698 5694 5691 5688 5686
5632 5637 5657 5657 5668 5678 5687 5695 5705 5715 5715 5720 5722 5726 5727 5727 5727 5727 5727 5727 5727 5729 5730 5731 5732 5730 5729 5727 5726 5725 5723 5722 5722 5721 5718 5715 5713 5711 5710 5709 5708 5706 5704 5701 5697 5693 5690 5687 5686
5625 5633 5636 5648 5657 5668 5678 5686 5697 5710 5712 5714 5717 5722 5723 5723 5723 5724 5725 5725 5725 5727 5727 5728 5727 5725 5724 5723 5721 5721 5720 5719 5717 5715 5713 5711 5709 5708 5707 5707 5707 5705 5702 5700 5697 5692 5689 5687 5686
5612 5619 5628 5637 5648 5660 5671 5679 5697 5703 5706 5709 5714 5717 5719 5719 5720 5722 5722 5722 5724 5723 5724 5724 5723 5721 5721 5719 5718 5718 5717 5714 5712 5710 5709 5708 5707 5706 5706 5707 5706 5704 5701 5699 5696 5693 5689 5687 5687
5598 5608 5617 5626 5642 5655 5663 5678 5693 5695 5699 5701 5710 5712 5713 5715 5717 5718 5718 5719 5720 5721 5721 5720 5719 5719 5717 5717 5716 5715 5713 5710 5709 5708 5707 5706 5705 5704 5705 5706 5705 5703 5701 5698 5696 5693 5691 5687 5686
Wind_Speed
21 20 19 18 18 15 15 17 16 20 20 17 24 27 30 28 27 24 23 24 23 32 32 33 35 34 33 30 31 30 29 23 21 19 17 19 21 21 22 23 24 26 28 29 29 28 25 26 27
24 22 20 20 20 17 18 22 18 20 26 26 29 32 36 33 32 24 25 21 27 29 29 31 33 37 37 34 33 31 25 20 18 17 18 20 20 19 20 23 24 27 28 28 30 30 29 27 28
27 26 25 24 19 17 20 19 17 21 25 32 29 31 35 30 24 21 24 27 34 32 33 33 33 36 35 35 34 33 25 18 17 19 23 23 21 20 22 26 26 29 29 29 28 29 30 29 29
30 30 28 24 22 21 20 22 23 30 30 29 22 29 35 28 19 21 28 32 37 35 36 34 33 35 31 34 36 35 32 25 23 26 27 25 23 24 25 29 30 30 27 25 23 24 26 28 29
34 33 32 23 20 26 23 27 29 28 28 25 17 21 14 22 29 28 32 36 38 37 36 34 35 31 33 33 34 34 32 28 29 31 30 27 27 27 29 32 32 27 24 22 21 21 21 22 24
38 37 34 29 24 29 23 30 26 27 17 14 21 28 26 33 29 33 40 41 31 38 29 35 31 32 33 36 35 36 34 33 33 34 32 29 29 29 31 32 30 26 26 25 23 22 20 21 22
43 42 38 36 32 34 26 37 33 21 15 19 23 23 27 30 33 40 45 46 34 33 30 37 34 37 29 35 36 32 35 31 31 34 33 31 30 29 32 30 29 29 29 27 25 24 24 24 23
45 49 46 46 43 37 30 36 37 34 19 20 25 33 36 39 42 44 44 43 39 35 38 41 39 47 39 34 35 32 33 33 31 33 33 32 29 30 31 29 29 30 29 28 27 24 25 27 27
47 58 52 48 47 39 30 38 37 31 33 29 26 35 40 38 39 41 42 46 38 43 47 50 52 50 45 37 34 32 34 35 30 32 33 31 28 30 31 30 30 29 28 28 28 28 29 29 29
54 59 57 48 46 47 44 45 33 38 41 35 30 38 40 34 35 41 41 42 37 42 52 52 53 55 40 39 32 33 34 35 30 32 32 28 27 30 31 31 30 29 29 29 27 28 30 31 29
59 63 54 49 48 52 47 42 48 40 43 44 36 37 27 32 31 35 37 40 40 49 53 54 58 53 37 38 30 33 34 35 32 34 32 27 26 29 30 31 32 31 31 29 29 27 29 32 30
65 65 64 54 54 53 49 45 44 42 34 37 38 44 45 46 50 45 51 50 51 52 52 57 53 48 37 38 28 31 35 36 34 34 30 26 26 29 31 31 35 35 33 31 31 31 32 33 29
63 59 62 62 60 55 52 52 45 43 41 40 41 39 41 42 44 46 49 52 54 55 57 54 47 38 35 33 28 32 37 38 35 34 26 22 25 29 32 32 36 37 39 36 34 33 32 31 28
67 68 65 65 63 60 60 57 49 46 40 39 45 42 40 43 47 48 50 51 51 50 49 49 38 30 27 29 30 33 38 38 36 32 26 22 24 29 31 36 37 40 42 39 38 36 33 32 29
74 75 75 69 66 61 54 55 52 43 37 39 40 43 46 43 43 45 44 45 47 46 43 44 33 28 29 31 32 36 37 38 36 30 26 22 25 30 34 38 40 46 43 43 42 42 37 35 33
76 78 71 57 58 60 55 56 45 40 44 46 44 45 41 40 36 32 36 36 32 32 36 40 39 33 31 35 35 39 37 37 34 28 24 24 28 35 38 39 42 42 45 46 46 44 42 38 36
68 66 63 50 51 58 61 51 46 43 44 43 42 38 36 36 29 30 30 31 33 34 38 39 38 39 36 36 38 39 38 36 34 27 24 25 31 31 35 41 40 44 45 46 46 42 40 39 37
61 59 57 54 50 50 51 49 47 43 41 42 40 35 31 27 29 29 33 30 29 33 35 36 37 37 37 34 36 36 36 34 34 24 26 25 28 32 35 39 42 42 43 43 42 39 36 33 32
57 61 56 50 50 46 45 49 48 44 41 40 36 36 28 29 28 31 23 23 28 32 37 38 40 41 39 31 31 33 34 35 31 26 28 28 31 35 38 41 41 40 39 38 35 31 30 28 25
59 58 52 51 51 47 43 44 44 43 41 39 29 31 30 28 26 26 24 27 30 36 38 39 40 44 36 29 28 31 32 33 26 27 29 31 33 35 38 39 38 37 34 31 28 25 24 24 23
60 57 53 53 50 47 50 43 46 36 38 31 32 28 28 27 23 24 26 29 31 36 38 39 36 35 28 23 25 29 30 26 26 31 31 32 33 34 36 36 34 31 29 26 24 23 24 22 21
64 57 55 54 51 51 46 47 39 34 34 31 28 29 28 24 19 25 27 29 31 37 37 36 25 26 23 18 28 28 24 24 29 29 31 33 31 32 32 32 29 25 22 21 20 22 22 22 19
57 61 59 57 54 54 48 45 25 34 30 24 26 27 21 17 23 27 28 29 27 27 25 23 22 22 18 24 25 23 23 26 27 27 30 26 28 28 28 26 22 19 17 16 16 17 17 19 17
58 62 62 59 57 57 42 42 24 23 17 22 21 20 16 17 25 21 22 18 16 14 16 19 19 20 20 23 21 21 24 25 23 26 24 25 25 24 24 19 17 15 14 12 14 16 16 16 12
59 60 61 61 61 46 40 41 17 12 17 24 19 16 16 22 16 21 20 13 14 12 17 18 16 18 23 20 19 20 20 20 23 22 22 23 22 20 18 14 13 11 10 10 15 17 14 13 11
58 58 60 59 58 52 49 43 31 16 25 19 17 15 17 11 15 18 13 14 14 13 15 13 15 19 19 17 18 19 19 21 20 19 21 22 18 15 13 12 10 9 10 15 18 15 11 10 8
56 60 55 59 59 56 52 47 37 25 23 11 12 7 7 11 17 9 10 11 13 13 12 14 15 16 16 16 17 18 19 17 19 18 21 16 14 11 10 10 8 8 8 14 17 15 6 5 5
54 55 57 59 57 57 51 48 39 27 24 15 12 5 8 14 13 9 11 10 11 11 13 13 14 15 14 15 16 15 16 17 19 19 14 12 9 9 9 8 6 5 8 12 13 12 11 6 3
55 55 55 59 59 54 51 47 30 26 20 18 9 11 10 8 8 10 10 10 10 11 9 10 11 11 13 13 13 15 16 19 16 13 11 9 8 7 6 3 3 5 7 11 7 10 14 8 6
52 56 56 60 58 54 51 43 28 25 25 20 11 7 5 5 10 10 11 11 12 9 8 9 10 11 11 13 13 15 16 14 11 9 8 8 8 5 3 2 2 3 5 10 3 9 12 8 4
Wind_Direction
206 200 200 196 192 196 204 218 210 233 238 237 237 239 241 257 258 276 293 299 296 308 318 326 332 337 339 341 338 333 332 329 321 313 314 313 311 309 308 309 312 313 309 306 302 295 286 279 275
219 212 208 204 201 205 205 224 223 243 251 248 238 244 249 254 250 273 292 291 316 325 326 325 330 341 336 333 335 332 331 325 313 311 309 306 303 302 304 306 306 307 307 306 301 294 289 282 277
223 221 215 213 202 208 213 233 240 239 255 253 250 254 270 244 248 282 291 306 319 321 320 325 330 332 324 328 336 335 333 326 317 312 311 306 303 306 305 304 307 309 310 304 296 290 284 277 273
224 225 225 221 204 206 231 247 246 254 271 262 265 259 261 250 283 294 301 310 315 317 320 320 328 322 324 333 336 337 333 327 322 317 314 309 307 306 308 306 310 314 312 307 301 295 290 283 270
226 228 227 219 217 230 234 237 234 246 254 273 275 268 279 280 290 300 297 300 305 310 316 323 314 313 325 339 335 334 332 324 320 318 313 308 308 311 312 314 317 318 314 311 307 301 297 291 285
233 230 228 226 217 230 225 249 238 247 260 274 276 275 287 282 289 290 291 293 296 295 316 312 312 319 326 338 336 333 329 321 316 313 309 307 310 314 316 319 319 316 315 315 309 303 306 297 286
237 235 231 229 227 244 235 238 244 238 238 250 272 284 284 275 276 281 284 288 293 294 306 309 323 316 323 327 328 328 319 315 308 308 306 305 310 314 317 318 319 317 317 314 309 306 299 296 286
242 244 238 236 234 237 228 240 240 241 234 259 261 259 259 265 273 280 286 288 297 300 313 312 319 323 320 321 324 320 316 314 306 306 303 302 311 314 317 319 320 319 318 314 312 308 303 296 287
243 246 244 245 246 250 238 246 241 226 220 220 242 254 257 259 270 275 283 292 303 307 310 312 316 322 314 315 323 320 317 313 307 302 299 303 310 315 318 320 322 320 316 315 311 306 304 305 293
245 248 250 250 251 248 263 273 246 239 241 240 231 235 244 251 259 270 279 289 297 302 306 304 308 312 308 312 321 319 311 307 304 298 297 305 310 314 316 318 319 317 313 312 309 305 301 302 299
248 249 254 256 254 256 261 260 273 240 255 259 241 241 244 255 254 266 270 275 278 291 296 298 299 304 304 307 312 313 308 302 300 296 295 304 309 310 313 314 317 315 313 313 309 304 299 300 297
251 255 253 260 264 266 260 267 254 259 256 255 256 257 255 266 269 265 277 285 287 289 292 293 296 299 300 297 303 305 307 301 297 295 294 302 305 307 308 310 312 316 313 309 307 304 303 301 295
250 251 257 260 264 265 259 261 260 245 251 259 266 269 270 269 274 275 276 285 289 289 289 289 292 296 294 290 293 298 302 300 296 293 292 299 300 304 304 305 308 313 312 310 306 305 303 303 293
251 254 258 263 264 263 259 262 259 252 250 255 259 263 276 269 271 272 279 280 283 283 280 285 295 296 297 285 288 293 296 294 292 292 287 297 296 300 302 303 305 309 306 307 308 303 300 300 295
247 251 256 258 262 261 259 259 258 266 266 263 261 267 273 270 269 272 276 275 275 279 278 283 288 287 287 284 289 291 291 288 288 285 283 294 296 296 296 295 303 301 307 311 308 306 302 297 292
250 252 253 256 259 259 254 259 263 268 265 266 269 268 264 266 269 270 267 272 276 287 286 287 289 286 288 290 289 286 283 282 285 281 287 291 292 290 289 293 292 304 310 311 309 306 303 298 292
248 250 254 256 255 258 254 260 260 261 267 266 264 258 269 266 265 266 261 265 277 282 290 294 290 288 289 288 284 278 279 280 282 283 289 286 282 287 285 290 305 307 311 309 310 306 301 297 290
251 255 255 256 256 256 258 258 265 261 263 262 260 261 257 266 263 264 265 275 278 283 287 286 283 287 285 282 278 276 277 281 281 287 289 288 289 287 291 303 307 311 310 310 305 305 302 298 289
246 247 249 249 254 254 259 257 257 261 257 258 257 254 263 258 264 268 281 282 278 288 279 278 280 279 276 278 275 272 274 280 282 291 298 291 293 300 303 309 310 309 308 308 309 308 305 301 294
240 244 245 250 253 257 256 255 255 249 250 253 257 259 256 263 270 286 280 273 277 276 278 280 285 287 278 267 264 267 275 282 288 296 301 295 297 300 305 307 309 308 312 311 309 307 309 307 293
238 239 241 246 248 248 255 245 257 246 248 253 258 255 260 259 275 270 267 268 270 281 282 285 289 286 263 251 255 263 275 283 291 297 290 294 299 303 304 305 310 314 311 309 305 308 310 310 300
235 238 239 242 245 248 251 253 249 245 242 242 249 253 258 275 271 266 266 275 274 274 274 284 279 265 249 250 253 268 276 286 293 294 291 291 296 301 307 305 311 308 309 310 312 313 313 308 304
232 233 235 238 242 246 247 252 229 239 239 238 244 257 264 260 259 258 266 273 272 277 278 275 261 259 255 251 268 274 285 291 290 287 293 297 303 302 301 306 302 310 313 317 327 333 321 325 321
227 231 231 233 237 240 239 249 238 234 238 235 244 249 253 257 254 270 276 272 276 267 261 250 250 258 257 268 271 286 290 285 282 290 293 296 299 303 304 305 306 311 313 329 348 349 342 340 341
223 226 228 229 232 233 232 237 227 203 226 238 241 238 246 255 264 275 275 262 256 239 242 253 253 259 268 273 283 286 285 284 285 288 296 300 304 303 304 301 305 313 309 329 337 331 338 349 344
219 224 226 229 231 232 231 232 226 218 226 235 221 238 255 270 269 266 281 253 235 239 250 255 264 264 272 280 286 288 291 287 293 296 298 304 303 306 302 310 312 317 331 339 336 321 324 338 354
214 220 222 224 227 227 230 232 229 216 241 236 243 241 258 266 262 271 268 247 233 238 251 263 267 272 282 285 291 295 292 299 294 294 301 303 308 302 300 312 319 334 336 338 349 351 349 337 3
213 216 215 220 220 224 225 228 225 226 236 213 222 242 258 246 255 253 250 242 241 246 256 268 272 280 285 289 296 296 300 296 296 301 304 309 315 305 298 313 324 303 324 343 357 7 340 336 315
209 210 214 214 218 219 221 222 221 205 224 236 209 208 253 250 265 262 256 246 257 249 256 268 277 286 296 297 296 296 292 300 304 310 309 311 317 296 299 304 276 303 344 351 38 359 357 319 320
212 207 209 211 216 216 220 215 208 202 205 218 186 215 254 282 261 265 256 257 261 255 256 277 288 295 298 298 298 293 303 310 314 301 302 310 324 301 277 248 244 309 2 17 15 354 360 350 320